Location: Charlottetown
(46.2330°N, 63.1330°W)
Time: 11:00:36
(UTC-04:00)

Daily predictions for brighter satellites

Satellite Brightness Start Highest point End
(mag) Time Altitude Azimuth Time Altitude Azimuth Time Altitude Azimuth
Lacrosse 5 2.7 17:23:58 10° W 17:28:48 42° NNW 17:33:37 10° NE
Cosmos 468 Rocket 4.1 17:24:30 10° SSW 17:29:42 81° WNW 17:34:53 10° NNE
Cosmos 1937 Rocket 4.0 17:25:12 10° NNW 17:30:22 69° WSW 17:35:32 10° S
COSMOS 2428 2.8 17:24:52 10° S 17:30:29 63° ESE 17:36:08 10° NNE
Cosmos 2237 Rocket 3.4 17:27:35 10° SSE 17:31:50 23° E 17:36:07 10° NE
Cosmos 2237 4.3 17:29:50 10° SSW 17:35:32 82° ESE 17:41:16 10° NNE
Tsikada Rocket 4.1 17:31:11 10° S 17:37:32 78° E 17:43:59 10° N
SL-16 R/B 4.0 17:36:57 10° ESE 17:37:38 10° E 17:38:20 10° E
CZ-2C R/B 2.5 17:32:38 10° SSE 17:37:38 84° WSW 17:42:31 10° NNW
Cosmos 1484 Rocket 3.2 17:35:34 10° SE 17:39:15 40° ENE 17:43:01 10° N
Cosmos 1743 Rocket 3.8 17:34:58 10° SSE 17:39:17 49° E 17:43:38 10° NNE
Cosmos 1726 3.0 17:36:23 10° NNE 17:39:43 29° ENE 17:43:02 10° SE
MSX 3.8 17:34:31 10° SSE 17:40:12 73° ENE 17:45:56 10° N
Cosmos 1328 Rocket 3.6 17:36:23 10° N 17:40:50 68° E 17:45:15 10° SSE
SJ-7 4.4 17:38:27 10° SSE 17:42:30 88° ENE 17:46:32 10° NNW
Cosmos 1300 3.4 17:39:38 10° N 17:43:05 31° ENE 17:46:32 10° SE
Cosmos 2151 4.0 17:39:55 10° SE 17:43:20 24° E 17:46:45 10° NE
Cosmos 1515 Rocket 3.6 17:44:26 10° N 17:48:53 62° E 17:53:17 10° SSE
SKYMED 2 4.2 17:49:29 10° NNE 17:53:32 37° E 17:57:33 10° SSE
Cosmos 1151 Rocket 3.2 17:50:17 10° N 17:54:25 47° ENE 17:58:34 10° SSE
COSMOS 2441 4.3 17:50:13 10° SSE 17:55:04 81° ENE 17:59:57 10° NNW
Aureole 2 Rocket 4.2 17:55:35 10° SE 17:58:07 18° E 17:59:30 15° ENE
Cosmos 1844 Rocket 3.2 17:53:22 10° NNW 17:58:59 66° WSW 18:04:34 10° SSE
Cosmos 1634 Rocket 3.9 17:53:17 10° N 17:59:30 72° E 18:05:38 10° SSE
Lacrosse 5 rocket 1.3 17:57:04 10° NW 18:00:44 50° NE 18:04:31 10° ESE
SL-16 R/B 4.3 17:58:23 10° W 18:02:32 20° NW 18:06:42 10° N
Cosmos 1500 Rocket 3.5 18:01:36 10° S 18:05:53 67° E 18:10:14 10° NNE
CZ-4C R/B 4.3 18:03:53 10° NW 18:07:52 17° N 18:12:12 10° NE
Meteor 1-28 Rocket 3.8 18:05:05 10° NNE 18:08:30 33° E 18:11:53 10° SSE
Cosmos 1763 Rocket 3.7 18:03:19 10° SSW 18:08:33 72° WNW 18:13:43 10° NNE
CZ-4 R/B 3.3 18:05:56 10° SSW 18:09:25 32° W 18:12:59 10° NNW
Cosmos 2333 4.3 18:05:23 10° SSW 18:10:59 77° WNW 18:16:37 10° NNE
Cosmos 372 Rocket 3.9 18:07:49 10° NNW 18:12:53 61° ENE 18:17:55 10° SE
Cosmos 332 Rocket 3.8 18:08:58 10° SSW 18:13:48 87° WNW 18:18:42 10° NNE
NOSS 0 Rocket 4.0 18:09:09 10° S 18:15:13 59° ESE 18:21:19 10° NE
Cosmos 2360 Rocket 3.7 18:12:10 10° WSW 18:17:10 32° NW 18:22:11 10° N
Cosmos 1980 3.8 18:13:33 10° S 18:19:06 57° ESE 18:24:18 12° NE
Cosmos 1328 3.7 18:16:40 10° S 18:20:36 80° E 18:24:34 10° N
Sich 1 4.5 18:17:29 10° SE 18:20:03 19° E 18:20:03 19° E
ATLAS 3B R/B 4.5 18:16:43 10° NW 18:21:48 20° N 18:26:42 10° NE
USA 215 3.3 18:17:09 10° SE 18:23:44 88° NE 18:30:20 10° NW
Lacrosse 4 Rocket 3.1 18:21:57 10° N 18:23:59 16° NNE 18:23:59 16° NNE
Cosmos 540 Rocket 3.5 18:21:16 10° S 18:26:21 62° ESE 18:31:05 12° NNE
FENGYUN 3A 4.3 18:21:38 10° SE 18:26:21 32° ENE 18:31:04 10° N
Meteor 2-10 3.9 18:21:37 10° N 18:26:42 68° ENE 18:31:51 10° SSE
Cosmos 2084 3.0 18:24:50 10° SW 18:28:43 79° SE 18:30:42 27° NE
ALOS 2.9 18:27:59 10° SE 18:32:08 32° ENE 18:36:17 10° N
Cosmos 44 3.5 18:26:58 10° SSW 18:32:08 61° ESE 18:35:09 24° NE
BREEZE-M DEB (TANK) 3.4 18:30:10 10° SSW 18:32:06 23° SE 18:32:06 23° SE
Cosmos 2333 Rocket 2.1 18:27:58 10° SSW 18:33:37 85° ESE 18:38:54 12° NNE
SJ-6B 3.0 18:30:10 10° SSE 18:34:07 53° ENE 18:38:11 10° N
ATLAS 5 CENTAUR R/B 4.0 18:31:47 10° NNW 18:34:53 15° NNE 18:36:30 13° NNE
METEOR-M 4.0 18:31:09 10° SSE 18:36:27 69° ENE 18:41:47 10° N
OTV 4 3.3 18:35:22 10° SW 18:36:29 12° SSW 18:37:35 10° S
Resurs 01 Rocket 2.1 18:40:02 29° ESE 18:41:22 36° ENE 18:45:26 10° N
COSMO-SKYMED 1 2.8 18:37:18 10° N 18:41:39 71° WNW 18:45:58 10° SSW
Cosmos 1461 4.2 18:39:05 10° SSE 18:41:47 23° SE 18:41:47 23° SE
Cosmos 2219 Rocket 2.5 18:37:41 10° SW 18:43:17 66° WNW 18:48:47 11° NNE
Cosmos 371 Rocket 3.7 18:39:00 10° SSW 18:43:45 62° WNW 18:48:31 10° NNE
Cosmos 1707 Rocket 3.6 18:39:58 10° N 18:44:13 52° ENE 18:48:26 10° SSE
SL-19 R/B 4.3 18:39:22 10° SE 18:45:07 58° ENE 18:50:37 10° N
Cosmos 1703 3.4 18:42:03 10° S 18:45:49 48° E 18:46:22 45° ENE
Cosmos 1125 Rocket 4.4 18:42:13 10° NNW 18:47:15 50° WSW 18:52:14 10° S
DMSP B5D1-3 4.4 18:42:37 10° NNE 18:47:45 90° ESE 18:52:51 10° SSW
Cosmos 2278 Rocket 2.8 18:42:20 10° NNW 18:47:56 60° WSW 18:53:30 10° S
Cosmos 2058 2.8 18:45:09 10° S 18:49:15 86° W 18:53:12 11° N
Cosmos 2279 Rocket 4.1 18:44:27 10° N 18:50:41 81° W 18:56:55 10° S
Meteor 1-27 4.4 18:44:53 10° NNW 18:50:42 77° W 18:56:31 10° S
Cosmos 1943 Rocket 4.3 18:53:07 10° NNE 18:53:11 10° NNE 18:53:11 10° NNE
Cosmos 1666 Rocket 3.8 18:53:06 10° SSE 18:56:50 46° ESE 18:56:50 46° ESE
FREGAT/IRIS 3.6 18:55:46 10° S 18:59:50 38° NNW 19:01:54 10° NNW
Spot 2 Rocket 3.5 18:54:03 10° SSE 18:58:58 55° ENE 19:03:54 10° N
Cosmos 1455 4.2 18:56:08 10° N 18:57:05 17° N 18:57:05 17° N
NOAA 12 4.3 18:55:00 10° S 19:00:13 71° WSW 19:05:30 10° NNW
Cosmos 1626 3.1 18:57:02 10° S 18:59:16 33° SSE 18:59:16 33° SSE
Cosmos 1340 Rocket 2.8 18:59:35 10° SSW 19:03:32 78° W 19:05:17 32° N
Cosmos 44 Rocket 4.0 18:59:10 10° SW 19:04:11 53° NW 19:06:56 25° NNE
CENTAUR R/B 3.6 19:00:58 10° WSW 19:06:56 41° NW 19:12:00 17° NNE
Cosmos 1538 Rocket 4.1 19:02:58 10° S 19:08:04 51° ESE 19:08:21 50° E
Cosmos 1356 Rocket 4.1 19:08:38 10° S 19:11:16 39° S 19:11:16 39° S
Lacrosse 5 3.3 19:08:43 10° WNW 19:12:52 24° N 19:13:45 23° NNE
Nadezhda 4 Rocket 3.9 19:07:36 10° S 19:13:48 71° E 19:20:07 10° NNE
Cosmos 2237 Rocket 2.6 19:09:52 10° SW 19:15:25 60° WNW 19:19:13 21° NNE
Cosmos 2369 Rocket 3.7 19:13:59 10° N 19:16:36 21° NNE 19:16:36 21° NNE
Aureole 1 Rocket 4.5 19:14:55 10° S 19:18:10 35° SE 19:18:10 35° SE
SL-16 R/B 2.0 19:15:04 10° SSW 19:20:41 71° ESE 19:21:41 58° NE
Cosmos 1900 4.5 19:19:07 10° NW 19:24:04 71° WSW 19:25:42 42° SSE
Cosmos 304 Rocket 3.8 19:22:35 10° SSW 19:27:23 76° WNW 19:28:11 61° N
Cosmos 2297 4.2 19:22:31 10° NNW 19:28:07 60° WSW 19:33:44 10° S
Cosmos 1092 Rocket 3.9 19:25:47 10° S 19:32:04 71° E 19:35:05 33° NNE
Aureole 2 Rocket 3.9 19:29:40 10° SW 19:33:14 40° WNW 19:33:25 40° NW
Orbus 7S? 4.3 19:34:38 10° NW 19:38:51 87° NE 19:40:09 60° SE
Lacrosse 5 rocket 3.1 19:36:33 10° WNW 19:39:45 25° SW 19:40:18 24° SW
Sich 1 4.5 19:53:53 10° SSW 19:57:08 36° WSW 19:57:08 36° WSW
CZ-4C R/B 4.1 19:53:23 10° NNW 19:57:30 24° N 19:57:30 24° N
Lacrosse 4 Rocket 4.0 19:59:41 10° NW 20:00:21 14° NW 20:00:21 14° NW
ALOS 4.0 20:05:27 10° SSW 20:09:34 30° W 20:13:42 10° NNW
ATLAS 3B R/B 4.3 20:09:52 10° NNW 20:13:57 21° N 20:13:57 21° N
Resurs 01 Rocket 3.7 20:17:34 25° WSW 20:17:54 25° W 20:21:36 10° NW
Cosmos 2333 Rocket 4.4 20:14:32 10° W 20:18:39 20° NW 20:20:56 16° NNW
ATLAS 5 CENTAUR R/B 4.2 20:16:11 10° NNW 20:18:03 19° NNW 20:18:03 19° NNW
SL-16 R/B 4.4 21:00:55 10° W 21:03:37 20° WNW 21:03:37 20° WNW
